User: anonymous   Login
Location: Caltech
(34.1382°N, 118.1253°W)
Time: 08:33:03
(UTC-07:00)
Language:

Cosmos 676 Rocket - Orbit

View from above orbital plane
View from above orbital plane
View from above satellite
View from above satellite

Ground track
Ground track

The orbit data is extracted from the following two-line orbital elements,

1 07434U 74071B   15115.85690419  .00000321  00000-0  11815-3 0  9997
2 07434 074.0483 212.3878 0021687 314.5207 045.4173 14.36457300124221
Epoch (UTC): 25 April 2015 20:33:56
Eccentricity: 0.0021687
inclination: 74.0483°
perigee height: 755 km
apogee height: 786 km
right ascension of ascending node: 212.3878°
argument of perigee: 314.5207°
revolutions per day: 14.36457300
mean anomaly at epoch: 45.4173°
orbit number at epoch: 12422

The dashed part of the orbit path shows where the satellite is in the earth's shadow,  

DLR